Flag for U.S.A. Weather past 2 weeks in Post Falls, Idaho, U.S.A.

Now
54 °F

Sunny.


Feels Like: 52 °F
Forecast: 44 / 56 °F
Wind: 7 mph from Southeast

Location: Coeur d'Alene Weather Reporting System

Current Time: Oct 24, 2014 at 1:45:53 PM

Latest Report: Oct 24, 2014 at 1:15 PM


Visibility: 10 mi

Pressure: 30.07 "Hg

Humidity: 63%

Dew point: 41 °F

Location of Post FallsLocation

Historic Weather in Post Falls — Graph

°F

Post Falls temperature yesterday

Maximum temperature yesterday: 52 °F (at 12:15 AM)
Minimum temperature yesterday: 48 °F (at 9:15 PM)
Average temperature yesterday: 51 °F

Past Weeks' High & Low Weather Summary

 TemperatureHumidityPressure
High72 °F (Oct 9, 1:55 PM)100% (Oct 18, 11:35 PM)30.20 "Hg (Oct 18, 11:35 PM)
Low36 °F (Oct 22, 6:35 AM)10% (Oct 11, 10:35 AM)29.56 "Hg (Oct 15, 1:55 AM)
Average52 °F69%29.93 "Hg
* Reported Oct 9 12:15 PM — Oct 24 12:35 PM, Post Falls, Weather by CustomWeather, © 2014

Note: Actual official high and low records may vary slightly from our data, if they occured in-between our weather recording intervals... More about our weather records

Advertising

Post Falls weather history for previous 24 hours

 ConditionsComfort  
Time TempWeatherWind HumidityBarometerVisibility
12:35 PM
Oct 24
54 °FSunny.9 mph63%30.08 "Hg10 mi
12:15 PM54 °FPassing clouds.6 mph67%30.08 "Hg10 mi
11:55 AM52 °FPassing clouds.7 mph67%30.09 "Hg10 mi
11:35 AM52 °FScattered clouds.7 mph67%30.09 "Hg10 mi
10:55 AM50 °FSunny.6 mph71%30.10 "Hg10 mi
10:35 AM48 °FSunny.7 mph82%30.10 "Hg10 mi
10:15 AM48 °FPassing clouds.3 mph82%30.10 "Hg10 mi
9:55 AM46 °FBroken clouds.6 mph87%30.10 "Hg10 mi
9:35 AM46 °FPartly sunny.No wind82%30.10 "Hg10 mi
9:15 AM46 °FScattered clouds.No wind76%30.10 "Hg10 mi
8:55 AM45 °FSunny.No wind81%30.09 "Hg10 mi
8:35 AM43 °FSunny.3 mph87%30.08 "Hg10 mi
8:15 AM43 °FPassing clouds.No wind81%30.08 "Hg10 mi
7:55 AM45 °FPassing clouds.No wind81%30.08 "Hg10 mi
7:35 AM43 °FClear.3 mph87%30.07 "Hg10 mi
7:15 AM43 °FClear.3 mph81%30.07 "Hg10 mi
6:55 AM43 °FPassing clouds.6 mph81%30.06 "Hg10 mi
6:35 AM45 °FPassing clouds.6 mph81%30.06 "Hg10 mi
6:15 AM43 °FClear.5 mph81%30.05 "Hg10 mi
5:55 AM43 °FPassing clouds.5 mph81%30.05 "Hg10 mi
5:35 AM43 °FPassing clouds.5 mph81%30.05 "Hg10 mi
5:15 AM43 °FPassing clouds.3 mph81%30.04 "Hg10 mi
4:55 AM45 °FClear.No wind81%30.04 "Hg10 mi
4:35 AM43 °FClear.No wind87%30.04 "Hg10 mi
4:15 AM43 °FClear.No wind81%30.04 "Hg10 mi
3:55 AM45 °FClear.No wind76%30.04 "Hg10 mi
3:35 AM43 °FClear.No wind81%30.04 "Hg10 mi
3:15 AM43 °FClear.No wind81%30.04 "Hg10 mi
2:55 AM45 °FClear.No wind81%30.03 "Hg10 mi
2:35 AM45 °FPassing clouds.3 mph81%30.04 "Hg10 mi
2:15 AM45 °FPassing clouds.3 mph81%30.03 "Hg10 mi
1:55 AM46 °FClear.6 mph76%30.01 "Hg10 mi
1:35 AM46 °FPassing clouds.6 mph76%30.01 "Hg10 mi
1:15 AM46 °FOvercast.8 mph82%30.00 "Hg10 mi
12:55 AM48 °FMostly cloudy.13 mph76%30.00 "Hg10 mi
12:35 AM48 °FPassing clouds.12 mph76%29.99 "Hg10 mi
12:15 AM48 °FMostly cloudy.10 mph76%29.98 "Hg10 mi
11:55 PM
Oct 23
48 °FMostly cloudy.8 mph76%29.98 "Hg10 mi
11:35 PM48 °FOvercast.5 mph76%29.98 "Hg10 mi
11:15 PM48 °FOvercast.6 mph82%29.97 "Hg10 mi
10:55 PM48 °FMostly cloudy.7 mph82%29.96 "Hg10 mi
10:35 PM48 °FOvercast.6 mph82%29.96 "Hg10 mi
10:15 PM48 °FPartly cloudy.13 mph82%29.95 "Hg10 mi
9:55 PM48 °FMostly cloudy.9 mph82%29.95 "Hg10 mi
9:35 PM48 °FMostly cloudy.9 mph82%29.94 "Hg10 mi
9:15 PM48 °FMostly cloudy.9 mph87%29.94 "Hg10 mi
8:55 PM50 °FMostly cloudy.7 mph82%29.93 "Hg10 mi
8:35 PM50 °FOvercast.9 mph82%29.92 "Hg10 mi
8:15 PM50 °FMostly cloudy.6 mph82%29.92 "Hg10 mi
7:55 PM50 °FMostly cloudy.8 mph82%29.91 "Hg10 mi
7:35 PM50 °FMostly cloudy.10 mph82%29.91 "Hg10 mi
7:15 PM50 °FMostly cloudy.12 mph82%29.90 "Hg10 mi
6:55 PM50 °FOvercast.9 mph82%29.89 "Hg10 mi
6:35 PM50 °FMore clouds than sun.10 mph82%29.88 "Hg10 mi
6:15 PM50 °FMostly cloudy.8 mph82%29.88 "Hg10 mi
5:55 PM50 °FCloudy.7 mph88%29.87 "Hg10 mi
5:35 PM52 °FMostly cloudy.9 mph82%29.86 "Hg10 mi
4:55 PM52 °FCloudy.10 mph82%29.84 "Hg10 mi
4:35 PM52 °FOvercast.12 mph82%29.83 "Hg10 mi
4:15 PM52 °FOvercast.8 mph82%29.81 "Hg10 mi
3:55 PM52 °FCloudy.5 mph88%29.81 "Hg10 mi
3:35 PM52 °FPartly sunny.5 mph88%29.80 "Hg10 mi
3:15 PM52 °FPartly sunny.7 mph82%29.80 "Hg10 mi
2:55 PM52 °FMostly cloudy.17 mph88%29.80 "Hg9 mi
2:35 PM52 °FCloudy.13 mph88%29.79 "Hg10 mi
1:55 PM52 °FBroken clouds.5 mph94%29.78 "Hg9 mi
1:35 PM52 °FMostly cloudy.7 mph94%29.79 "Hg8 mi
1:15 PM52 °FBroken clouds.7 mph88%29.79 "Hg6 mi
Weather by CustomWeather, © 2014

See weather overviewHow to use our weather pages